[Iaude] MPEC L113: 2024 LZ2 [a=2.39,e=0.72,i=10.4,H=26.0]
    mpec at cfa.harvard.edu 
    mpec at cfa.harvard.edu
       
    Tue Jun 11 00:37:52 EDT 2024
    
    
  
M.P.E.C. 2024-L113                                Issued 2024 June 11, 04:36 UT
     The Minor Planet Electronic Circulars contain information on unusual
         minor planets, routine data on comets and natural satellites,
         and occasional editorial announcements.  They are published
    on behalf of Division F of the International Astronomical Union by the
          Minor Planet Center, Smithsonian Astrophysical Observatory,
                          Cambridge, MA 02138, U.S.A.
			  
             Prepared using the Tamkin Foundation Computer Network
                              MPC at CFA.HARVARD.EDU
            URL https://www.minorplanetcenter.net/    ISSN 1523-6714
                                    2024 LZ2                                    
Observations:
     K24L02Z* C2024 06 09.39695016 44 19.504-09 34 36.12         21.13wXEL113F51
     K24L02Z  C2024 06 09.40983916 44 14.327-09 34 57.68         21.32wXEL113F51
     K24L02Z  C2024 06 09.42213216 44 09.456-09 35 18.03         20.98wXEL113F51
     K24L02Z  C2024 06 09.43468416 44 04.294-09 35 39.27         20.21wXEL113F51
     K24L02Z KB2024 06 09.90895916 41 08.67 -09 51 02.2          19.9 GXEL113I93
     K24L02Z KB2024 06 09.91780216 41 04.57 -09 51 20.9          20.4 GXEL113I93
     K24L02Z 1C2024 06 09.98644 16 40 31.02 -09 53 52.2          20.9 VXEL113033
     K24L02Z 1C2024 06 09.98794 16 40 30.32 -09 53 55.4          20.8 VXEL113033
     K24L02Z 1C2024 06 09.98943 16 40 29.65 -09 53 58.6          20.3 VXEL113033
     K24L02Z 1C2024 06 09.99136 16 40 28.73 -09 54 02.4          20.8 VXEL113033
     K24L02Z KC2024 06 10.25286316 38 33.550-10 03 14.20         19.68GVEL113I52
     K24L02Z KC2024 06 10.25503716 38 32.350-10 03 17.40         19.68GVEL113I52
     K24L02Z KC2024 06 10.25721616 38 31.270-10 03 23.60         20.08GVEL113I52
     K24L02Z KC2024 06 10.26985916 38 24.340-10 03 53.70         20.11GVEL113I52
     K24L02Z KC2024 06 10.96129316 31 50.563-10 36 33.37         20.6 GVEL113J95
     K24L02Z KC2024 06 10.99791316 31 23.928-10 38 34.08         20.6 GVEL113J95
     K24L02Z KC2024 06 11.16482116 29 29.29 -10 47 48.5          20.8 GVEL113H21
     K24L02Z KC2024 06 11.16762216 29 27.03 -10 47 58.7          20.8 GVEL113H21
     K24L02Z KC2024 06 11.17723516 29 19.23 -10 48 33.6          20.5 GVEL113H21
     K24L02Z KC2024 06 11.18031216 29 16.72 -10 48 45.1          20.3 GVEL113H21
Observer details:
033 Karl Schwarzschild Observatory, Tautenburg.  Observers C. Heogner, F.
    Ludwig, M. Hartmann, B. Stecklum.  Measurer B. Stecklum.  1.34-m f/3
    Schmidt + CCD.
F51 Pan-STARRS 1, Haleakala.  Observers J. Herman, T. Lowe, P. Minguez, A.
    Schultz, I. Smith.  Measurers K. Chambers, T. de Boer, J. Fairlamb, H.
    Gao, M. Huber, C.-C. Lin, E. Magnier, Y. Ramanjooloo, R. Wainscoat, R.
    Weryk.  1.8-m Ritchey-Chretien + CCD.
H21 Astronomical Research Observatory, Westfield.  Observer R. Holmes.
    Measurers T. Linder, R. Holmes, L. Horn.  0.76-m f/3.0 astrograph + CCD.
I52 Steward Observatory, Mt. Lemmon Station.  Observer J. B. Fazekas.
    Measurers T. Beuden, V. F. Carvajal, D. Fay, J. B. Fazekas, D. C. Fuls, A.
    R. Gibbs, A. D. Grauer, H. Groeller, J. K. Hogan, R. A. Kowalski, S. M.
    Larson, G. J. Leonard, D. Rankin, R. L. Seaman, F. C. Shelly, K. W.
    Wierzchos.  1.0-m prime focus + CCD.
I93 St Pardon de Conques.  Observer F. Losse.  0.40-m f/3.7 reflector + CMO.
J95 Great Shefford.  Observer P. Birtwhistle.  0.41-m f/6.3 Schmidt-Cassegrain
    + CCD.
Orbital elements:
2024 LZ2                                                 Earth MOID = 0.0035 AU
Epoch 2024 Mar. 31.0 TT = JDT 2460400.5                 MPC                     
M 327.74015              (2000.0)            P               Q                  
n   0.26595984     Peri.  259.65470     +0.93485850     +0.30667270             
a   2.3947417      Node    82.31046     -0.21143933     +0.88565929             
e   0.7178851      Incl.   10.39798     -0.28518941     +0.34865380             
P   3.71           H   26.02          G   0.15           U   8                  
Residuals in seconds of arc
240609 F51  0.2+  0.2-    240609 033  0.2-  0.1+    240610 J95  0.7-  0.5+
240609 F51  0.6-  0.2-    240609 033  0.3+  0.0     240610 J95  0.2-  0.1+
240609 F51  0.0   0.0     240609 033  0.1+  0.2+    240611 H21  0.3-  0.2-
240609 F51  1.8-  0.3-    240610 I52  0.2-  0.3-    240611 H21  0.1-  0.1-
240609 I93 (0.9+  0.6-)   240610 I52 (0.6-  1.6+)   240611 H21  0.2+  0.2+
240609 I93  0.3+  0.9-    240610 I52  0.8+  0.6+    240611 H21  0.3+  0.0
240609 033  0.3-  0.2+    240610 I52  0.5-  0.6+
Ephemeris:
2024 LZ2                 a,e,i = 2.39, 0.72, 10                  q = 0.6756
Date    TT    R. A. (2000) Decl.     Delta      r    Elong.  Phase     V
2024 05 12    17 05 53.3 -08 46 06   0.4255  1.3996   151.7    20.0    25.9
...
2024 05 27    17 05 42.6 -08 11 41   0.2258  1.2301   162.2    14.6    24.1
...
2024 06 04    16 59 42.3 -08 23 54   0.1275  1.1385   165.7    12.7    22.6
...
2024 06 10    16 40 27.3 -09 52 05   0.05656 1.0699   164.7    14.5    20.7
2024 06 11    16 31 24.4 -10 35 47   0.04498 1.0585   163.4    15.9    20.3
2024 06 12    16 16 05.9 -11 48 04   0.03354 1.0472   160.7    18.7    19.7
...
2024 06 18    06 03 19.5 +02 17 53   0.03895 0.9799    21.5   157.7    29.2
...
2024 06 26    05 28 55.3 +05 54 15   0.1333  0.8936    21.3   155.6    31.0
...
2024 07 11    05 27 16.0 +08 16 40   0.3258  0.7554    30.8   136.5    29.4
A. U. Tomatic                (C) Copyright 2024 MPC           M.P.E.C. 2024-L113
    
    
More information about the Iaude
mailing list